User: anonymous   Login
Location: Contre
(49.7477°N, 2.0963°E)
Time: 17:41:05
(UTC+00:00)
Language:

SL-08 ROCKET BODY - Orbit

View from above orbital plane
View from above orbital plane
View from above satellite
View from above satellite

Ground track
Ground track

The orbit data is extracted from the following two-line orbital elements,

1 28522U 05002B   23153.50700145 -.00000008  00000-0 -19182-4 0  9997
2 28522  82.9446 145.1581 0045865 166.8532 193.3840 13.89717961931360
Epoch (UTC): 02 June 2023 12:10:04
Eccentricity: 0.0045865
inclination: 82.9446°
perigee height: 896 km
apogee height: 963 km
right ascension of ascending node: 145.1581°
argument of perigee: 166.8532°
revolutions per day: 13.89717961
mean anomaly at epoch: 193.3840°
orbit number at epoch: 93136

The dashed part of the orbit path shows where the satellite is in the earth's shadow,  

DLR